Location: Gleizolles
(44.4833°N, 6.7667°E)
Time: 21:24:12
(UTC+00:00)

PCSat - Pass Details

Date: 12 December 2022
Orbit: 785 x 793 km, 67.1° (Epoch: 04 February)

Event Time Altitude Azimuth Distance (km) Brightness Sun altitude
Rises 17:08:11 0° 218° (SW) 3,266 13.8 -12.8°
Reaches altitude 10° 17:10:35 10° 221° (SW) 2,342 13.0 -13.2°
Maximum altitude 17:15:56 67° 304° (NW) 855 9.9 -14.1°
Enters shadow 17:21:04 11° 27° (NNE) 2,261 11.5 -15.0°
